This is the latest recevied weather packets stored in our database for station/object KC1BRV. If no packets are shown the sender has not sent any weather packets the latest 10 day(s).
| Time | Temp. | Humidity | Pressure | Rain* | Wind** | Luminosity | Snow |
|---|---|---|---|---|---|---|---|
| 1777848029 | 11.11° C | 37% | 1009.5 hPa | 0 mm | - | 28 W/m² | - |
| 1777847727 | 11.11° C | 39% | 1009.6 hPa | 0 mm | - | 36 W/m² | - |
| 1777847422 | 11.11° C | 38% | 1009.4 hPa | 0 mm | - | 30 W/m² | - |
| 1777847120 | 11.67° C | 36% | 1009.2 hPa | 0 mm | - | 30 W/m² | - |
| 1777846818 | 11.67° C | 37% | 1009.2 hPa | 0 mm | - | 53 W/m² | - |
| 1777846516 | 11.67° C | 36% | 1009.2 hPa | 0 mm | - | 85 W/m² | - |
| 1777846213 | 11.67° C | 38% | 1009.2 hPa | 0 mm | - | 86 W/m² | - |
| 1777845909 | 11.67° C | 37% | 1009.4 hPa | 0 mm | - | 60 W/m² | - |
| 1777845606 | 11.67° C | 38% | 1009.2 hPa | 0 mm | - | 105 W/m² | - |
| 1777845303 | 11.67° C | 38% | 1009.2 hPa | 0 mm | - | 83 W/m² | - |
| 1777845000 | 11.67° C | 37% | 1009.1 hPa | 0 mm | - | 92 W/m² | - |
| 1777844699 | 11.67° C | 37% | 1009 hPa | 0 mm | - | 88 W/m² | - |
| 1777844395 | 11.67° C | 39% | 1008.8 hPa | 0 mm | - | 95 W/m² | - |
| 1777844094 | 11.67° C | 38% | 1008.9 hPa | 0 mm | - | 100 W/m² | - |
| 1777843789 | 11.67° C | 38% | 1008.7 hPa | 0 mm | - | 103 W/m² | - |
| 1777843486 | 11.67° C | 39% | 1008.7 hPa | 0 mm | - | 97 W/m² | - |
| 1777843184 | 11.67° C | 40% | 1008.8 hPa | 0 mm | - | 104 W/m² | - |
| 1777842881 | 11.67° C | 39% | 1008.6 hPa | 0 mm | - | 107 W/m² | - |
| 1777842576 | 11.67° C | 38% | 1008.5 hPa | 0 mm | - | 100 W/m² | - |
| 1777842273 | 11.67° C | 37% | 1008.2 hPa | 0 mm | - | 104 W/m² | - |
| 1777841968 | 11.67° C | 38% | 1008.2 hPa | 0 mm | - | 151 W/m² | - |
| 1777841665 | 11.67° C | 39% | 1008.5 hPa | 0 mm | - | 121 W/m² | - |
| 1777841361 | 11.67° C | 37% | 1007.9 hPa | 0 mm | - | 132 W/m² | - |
| 1777841059 | 11.67° C | 37% | 1008 hPa | 0 mm | - | 135 W/m² | - |
| 1777840756 | 12.22° C | 37% | 1007.9 hPa | 0 mm | - | 126 W/m² | - |
* Rain latest hour (hover to see other rain measurements)
** Current wind speed in m/s (hover to see current wind gust speed)